Tracking 27112 objects as of 27-Mar-2023
HD Live streaming from Space Station
objects crossing your sky now

STARLINK-1805

Track STARLINK-1805 now!
10-day predictions
STARLINK-1805 is classified as:


NORAD ID: 46705
Int'l Code: 2020-073AM
Perigee: 553.5 km
Apogee: 555.2 km
Inclination: 53.1 °
Period: 95.6 minutes
Semi major axis: 6925 km
RCS: Unknown
Launch date: October 18, 2020
Source: United States (US)
Launch site: AIR FORCE EASTERN TEST RANGE (AFETR)
Your satellite tracking list
Your tracking list is empty




NASA's NSSDC Master Catalog

Two Line Element Set (TLE):
1 46705U 20073AM  23085.93096931  .00027034  00000-0  18273-2 0  9991
2 46705  53.0543  59.3511 0001247  87.6554 272.4578 15.06390924134324
Source of the keplerian elements: AFSPC